Location: Unspecified
(0.0000°N, 0.0000°E)
Time: 16:43:12
(UTC+00:00)

Explorer 7 - Visible Passes

Search period start: 12 April 2021 00:00
Search period end: 22 April 2021 00:00
Orbit: 484 x 677 km, 50.3° (Epoch: 11 April)

Date Brightness Start Highest point End Pass type
(mag) Time Alt. Az. Time Alt. Az. Time Alt. Az.
12 Apr 8.6 19:50:18 10° SW 19:51:55 24° SW 19:51:55 24° SW visible
13 Apr 8.6 19:55:13 10° WSW 19:58:14 27° WNW 19:58:14 27° WNW visible
14 Apr 7.6 18:19:25 10° S 18:22:41 28° SE 18:26:00 10° ENE visible
14 Apr 9.7 20:01:10 10° W 20:02:59 13° NW 20:04:50 10° NNW visible
15 Apr 6.6 18:23:22 10° SSW 18:27:06 66° SE 18:30:54 10° NE visible
16 Apr 7.6 18:27:52 10° SW 18:31:30 49° NW 18:35:14 10° NNE visible
17 Apr 10.1 04:50:31 10° NNE 04:53:34 16° NE 04:56:35 10° E visible
17 Apr 9.3 18:32:59 10° WSW 18:35:57 22° NW 18:38:58 10° N visible
18 Apr 9.2 04:53:43 10° N 04:58:02 31° NE 05:02:18 10° ESE visible
18 Apr 10.2 18:40:00 10° WNW 18:40:25 10° NW 18:40:52 10° NW visible
19 Apr 7.8 04:57:37 10° NNW 05:02:27 61° NE 05:07:14 10° SE visible
20 Apr 7.2 05:02:00 10° NW 05:06:51 68° SW 05:11:40 10° SSE visible
21 Apr 9.6 03:30:26 19° NE 03:30:50 19° NE 03:34:18 10° E visible
21 Apr 7.9 05:06:54 10° WNW 05:11:16 34° SW 05:15:40 10° SSE visible
